Data No.,UTC Date,UTC Time,Latitude,Longitude,Course(deg),Temp(degC),Sal�ipsu)
21,2002/9/21,23:29:00,30-10.2600N,138-51.2900E,159,27.745,34.6431
22,2002/9/21,23:30:00,30-10.0900N,138-51.3600E,160,27.748,34.6451
23,2002/9/21,23:31:00,30-09.9300N,138-51.4300E,159,27.753,34.6184
24,2002/9/21,23:32:00,30-09.7600N,138-51.5000E,160,27.751,34.6583
25,2002/9/21,23:33:00,30-09.5900N,138-51.5800E,159,27.757,34.6468
26,2002/9/21,23:34:00,30-09.4300N,138-51.6400E,160,27.754,34.6341
27,2002/9/21,23:35:00,30-09.2600N,138-51.7100E,160,27.758,34.6371
28,2002/9/21,23:36:00,30-09.1000N,138-51.7800E,157,27.76,34.6164
29,2002/9/21,23:37:00,30-08.9400N,138-51.8600E,156,27.759,34.6029
30,2002/9/21,23:38:00,30-08.8400N,138-51.9200E,156,27.771,34.6343
31,2002/9/21,23:39:00,30-08.7400N,138-51.9600E,158,27.787,34.6067
32,2002/9/21,23:40:00,30-08.4400N,138-52.1000E,158,27.795,34.6555
33,2002/9/21,23:41:00,30-08.3100N,138-52.1600E,158,27.786,34.6508
35,2002/9/21,23:43:00,30-07.9700N,138-52.3100E,157,27.775,34.6007
36,2002/9/21,23:44:00,30-07.7800N,138-52.4000E,158,27.779,34.609
37,2002/9/21,23:45:00,30-07.6200N,138-52.4700E,159,27.774,34.6355
38,2002/9/21,23:46:00,30-07.4400N,138-52.5500E,159,27.779,34.6363
39,2002/9/21,23:47:00,30-07.3100N,138-52.6000E,159,27.772,34.5752
40,2002/9/21,23:48:00,30-07.1100N,138-52.6900E,159,27.766,34.6127
41,2002/9/21,23:49:00,30-06.9900N,138-52.7400E,158,27.757,34.6083
42,2002/9/21,23:50:00,30-06.7700N,138-52.8400E,159,27.753,34.6182
43,2002/9/21,23:51:00,30-06.6500N,138-52.8800E,163,27.746,34.5918
44,2002/9/21,23:52:00,30-06.5700N,138-52.9000E,162,27.742,34.6163
45,2002/9/21,23:53:00,30-06.3900N,138-52.9800E,158,27.738,34.6144
46,2002/9/21,23:54:00,30-06.1200N,138-53.1000E,158,27.733,34.5573
47,2002/9/21,23:55:00,30-05.9600N,138-53.1700E,160,27.725,34.6205
48,2002/9/21,23:56:00,30-05.7800N,138-53.2400E,162,27.725,34.5963
49,2002/9/21,23:57:00,30-05.5900N,138-53.3100E,160,27.721,34.5774
50,2002/9/21,23:58:00,30-05.4300N,138-53.3800E,160,27.719,34.607
51,2002/9/21,23:59:00,30-05.2900N,138-53.4400E,160,27.717,34.6039
52,2002/9/22,0:00:00,30-05.0800N,138-53.5100E,161,27.711,34.5986
53,2002/9/22,0:01:00,30-04.9200N,138-53.5700E,162,27.705,34.5745
54,2002/9/22,0:02:00,30-04.7500N,138-53.6400E,161,27.698,34.592
55,2002/9/22,0:03:00,30-04.5800N,138-53.7100E,161,27.691,34.5959
56,2002/9/22,0:04:00,30-04.4300N,138-53.7700E,161,27.679,34.6194
57,2002/9/22,0:05:00,30-04.2400N,138-53.8400E,161,27.668,34.5795
58,2002/9/22,0:06:00,30-04.0800N,138-53.9000E,162,27.659,34.5995
59,2002/9/22,0:07:00,30-03.9300N,138-53.9600E,161,27.648,34.5883
60,2002/9/22,0:08:00,30-03.7400N,138-54.0300E,162,27.642,34.606
61,2002/9/22,0:09:00,30-03.5700N,138-54.0900E,161,27.632,34.6017
62,2002/9/22,0:10:00,30-03.4000N,138-54.1600E,160,27.628,34.6043
63,2002/9/22,0:11:00,30-03.2400N,138-54.2300E,159,27.627,34.5958
64,2002/9/22,0:12:00,30-03.0600N,138-54.3000E,160,27.627,34.5992
65,2002/9/22,0:13:00,30-02.9000N,138-54.3600E,163,27.624,34.6151
66,2002/9/22,0:14:00,30-02.7800N,138-54.4000E,162,27.628,34.6069
67,2002/9/22,0:15:00,30-02.5600N,138-54.4900E,161,27.627,34.5869
68,2002/9/22,0:16:00,30-02.4000N,138-54.5500E,159,27.641,34.5489
69,2002/9/22,0:17:00,30-02.2400N,138-54.6300E,157,27.642,34.5593
70,2002/9/22,0:18:00,30-02.0800N,138-54.7000E,157,27.631,34.5482
71,2002/9/22,0:19:00,30-01.9200N,138-54.7700E,160,27.633,34.62
73,2002/9/22,0:21:00,30-01.6600N,138-54.8700E,163,27.626,34.6147
74,2002/9/22,0:22:00,30-01.4300N,138-54.9400E,165,27.628,34.6033
75,2002/9/22,0:23:00,30-01.3200N,138-54.9700E,165,27.623,34.6
76,2002/9/22,0:24:00,30-01.1500N,138-55.0300E,163,27.629,34.5684
77,2002/9/22,0:25:00,30-01.0000N,138-55.0800E,163,27.631,34.565
78,2002/9/22,0:26:00,30-00.8700N,138-55.1300E,163,27.634,34.5823
79,2002/9/22,0:27:00,30-00.7000N,138-55.1900E,163,27.639,34.5924
80,2002/9/22,0:28:00,30-00.5200N,138-55.2500E,161,27.643,34.6043
81,2002/9/22,0:29:00,30-00.3600N,138-55.3200E,162,27.639,34.531
82,2002/9/22,0:30:00,30-00.2300N,138-55.3600E,165,27.634,34.5887
83,2002/9/22,0:31:00,30-00.0800N,138-55.4000E,165,27.641,34.5167
84,2002/9/22,0:32:00,29-59.9900N,138-55.4300E,165,27.664,34.5872
85,2002/9/22,0:33:00,29-59.8600N,138-55.4700E,164,27.663,34.6122
86,2002/9/22,0:34:00,29-59.6700N,138-55.5400E,161,27.66,34.614
87,2002/9/22,0:35:00,29-59.5400N,138-55.6000E,162,27.658,34.5697
88,2002/9/22,0:36:00,29-59.4400N,138-55.6300E,160,27.658,34.5931
89,2002/9/22,0:37:00,29-59.2800N,138-55.7000E,161,27.656,34.5948
90,2002/9/22,0:38:00,29-59.1700N,138-55.7400E,163,27.657,34.6086
91,2002/9/22,0:39:00,29-59.0100N,138-55.7900E,164,27.647,34.5876
92,2002/9/22,0:40:00,29-58.8700N,138-55.8400E,164,27.653,34.5778
93,2002/9/22,0:41:00,29-58.7200N,138-55.8900E,164,27.653,34.6081
94,2002/9/22,0:42:00,29-58.5900N,138-55.9400E,161,27.65,34.6156
95,2002/9/22,0:43:00,29-58.4400N,138-55.9900E,161,27.656,34.5551
96,2002/9/22,0:44:00,29-58.3800N,138-56.0100E,162,27.653,34.5913
97,2002/9/22,0:45:00,29-58.1600N,138-56.1000E,160,27.654,34.5904
98,2002/9/22,0:46:00,29-58.0300N,138-56.1400E,162,27.649,34.581
99,2002/9/22,0:47:00,29-57.8700N,138-56.2000E,164,27.645,34.6249
100,2002/9/22,0:48:00,29-57.7100N,138-56.2500E,163,27.643,34.5846
102,2002/9/22,0:50:00,29-57.5500N,138-56.3100E,162,27.636,34.5878
103,2002/9/22,0:51:00,29-57.3500N,138-56.3800E,160,27.634,34.5767
104,2002/9/22,0:52:00,29-57.2200N,138-56.4400E,162,27.643,34.6023
105,2002/9/22,0:53:00,29-57.0800N,138-56.4900E,159,27.627,34.618
106,2002/9/22,0:54:00,29-56.9200N,138-56.5600E,161,27.633,34.6252
107,2002/9/22,0:55:00,29-56.8300N,138-56.6000E,160,27.645,34.6232
108,2002/9/22,0:56:00,29-56.6600N,138-56.6600E,160,27.634,34.6378
109,2002/9/22,0:57:00,29-56.5800N,138-56.7000E,160,27.64,34.6339
110,2002/9/22,0:58:00,29-56.4200N,138-56.7600E,162,27.643,34.6392
111,2002/9/22,0:59:00,29-56.2500N,138-56.8200E,161,27.656,34.6376
112,2002/9/22,1:00:00,29-56.1300N,138-56.8800E,158,27.663,34.6261
113,2002/9/22,1:01:00,29-55.9900N,138-56.9400E,158,27.668,34.6242
114,2002/9/22,1:02:00,29-55.9300N,138-56.9600E,158,27.667,34.6458
115,2002/9/22,1:03:00,29-55.7600N,138-57.0400E,157,27.681,34.617
116,2002/9/22,1:04:00,29-55.6400N,138-57.0900E,158,27.681,34.6352
117,2002/9/22,1:05:00,29-55.4900N,138-57.1600E,161,27.684,34.5746
118,2002/9/22,1:06:00,29-55.4100N,138-57.1800E,164,27.684,34.6535
119,2002/9/22,1:07:00,29-55.2400N,138-57.2400E,160,27.684,34.6462
120,2002/9/22,1:08:00,29-55.1200N,138-57.2900E,159,27.687,34.586
121,2002/9/22,1:09:00,29-55.0200N,138-57.3400E,159,27.687,34.6346
122,2002/9/22,1:10:00,29-54.8800N,138-57.3900E,162,27.684,34.6442
123,2002/9/22,1:11:00,29-54.7800N,138-57.4300E,164,27.681,34.638
124,2002/9/22,1:12:00,29-54.6600N,138-57.4600E,162,27.682,34.6426
125,2002/9/22,1:13:00,29-54.5600N,138-57.5000E,158,27.674,34.6397
126,2002/9/22,1:14:00,29-54.4400N,138-57.5600E,155,27.669,34.637
127,2002/9/22,1:15:00,29-54.3500N,138-57.6100E,158,27.668,34.6547
128,2002/9/22,1:16:00,29-54.2800N,138-57.6400E,159,27.658,34.5895
129,2002/9/22,1:17:00,29-54.0900N,138-57.7100E,161,27.66,34.576
130,2002/9/22,1:18:00,29-53.9900N,138-57.7600E,160,27.655,34.6442
131,2002/9/22,1:19:00,29-53.8900N,138-57.7900E,163,27.643,34.637
132,2002/9/22,1:20:00,29-53.7700N,138-57.8400E,157,27.64,34.632
133,2002/9/22,1:21:00,29-53.6600N,138-57.8900E,159,27.638,34.6462
134,2002/9/22,1:22:00,29-53.5500N,138-57.9300E,160,27.636,34.6291
135,2002/9/22,1:23:00,29-53.4600N,138-57.9700E,159,27.629,34.6267
137,2002/9/22,1:25:00,29-53.2400N,138-58.0500E,159,27.631,34.6404
138,2002/9/22,1:26:00,29-53.1400N,138-58.1000E,156,27.634,34.615
139,2002/9/22,1:27:00,29-53.0300N,138-58.1500E,155,27.643,34.6426
140,2002/9/22,1:28:00,29-52.9100N,138-58.2100E,154,27.646,34.6373
141,2002/9/22,1:29:00,29-52.8100N,138-58.2700E,154,27.651,34.5925
143,2002/9/22,1:31:00,29-52.5800N,138-58.3900E,155,27.666,34.631
144,2002/9/22,1:32:00,29-52.5000N,138-58.4300E,154,27.671,34.6238
145,2002/9/22,1:33:00,29-52.3600N,138-58.5100E,152,27.668,34.6335
147,2002/9/22,1:35:00,29-52.1900N,138-58.6600E,133,27.662,34.623
148,2002/9/22,1:36:00,29-52.1200N,138-58.7500E,129,27.666,34.6078
149,2002/9/22,1:37:00,29-52.0300N,138-58.8600E,132,27.664,34.6325
150,2002/9/22,1:38:00,29-51.9500N,138-58.9500E,134,27.661,34.604
151,2002/9/22,1:39:00,29-51.8800N,138-59.0400E,135,27.673,34.5789
152,2002/9/22,1:40:00,29-51.8000N,138-59.1200E,136,27.675,34.6224
154,2002/9/22,1:42:00,29-51.6400N,138-59.3000E,133,27.67,34.6208
155,2002/9/22,1:43:00,29-51.5800N,138-59.3800E,129,27.668,34.6137
157,2002/9/22,1:45:00,29-51.4300N,138-59.5700E,135,27.663,34.6225
158,2002/9/22,1:46:00,29-51.3700N,138-59.6400E,137,27.662,34.612
159,2002/9/22,1:47:00,29-51.2900N,138-59.7200E,139,27.666,34.6001
160,2002/9/22,1:48:00,29-51.2400N,138-59.7700E,133,27.664,34.6284
161,2002/9/22,1:49:00,29-51.1000N,138-59.9200E,138,27.664,34.6242
162,2002/9/22,1:50:00,29-51.0200N,139-00.0100E,137,27.662,34.6033
163,2002/9/22,1:51:00,29-50.9400N,139-00.0900E,137,27.657,34.6032
164,2002/9/22,1:52:00,29-50.8300N,139-00.2100E,136,27.654,34.6256
165,2002/9/22,1:53:00,29-50.7400N,139-00.3000E,138,27.644,34.6093
166,2002/9/22,1:54:00,29-50.6500N,139-00.4000E,134,27.646,34.6221
167,2002/9/22,1:55:00,29-50.5800N,139-00.4900E,135,27.641,34.6169
168,2002/9/22,1:56:00,29-50.5000N,139-00.5700E,135,27.631,34.6162
169,2002/9/22,1:57:00,29-50.4200N,139-00.6800E,134,27.63,34.6004
170,2002/9/22,1:58:00,29-50.3600N,139-00.7500E,134,27.615,34.5843
171,2002/9/22,1:59:00,29-50.2500N,139-00.8900E,129,27.617,34.6092
172,2002/9/22,2:00:00,29-50.1900N,139-00.9900E,128,27.619,34.6178
173,2002/9/22,2:01:00,29-50.1300N,139-01.0700E,133,27.615,34.6175
174,2002/9/22,2:02:00,29-50.0300N,139-01.1700E,138,27.61,34.6015
175,2002/9/22,2:03:00,29-49.9500N,139-01.2500E,136,27.618,34.6006
176,2002/9/22,2:04:00,29-49.8800N,139-01.3400E,137,27.614,34.6129
177,2002/9/22,2:05:00,29-49.7800N,139-01.4400E,138,27.617,34.6228
178,2002/9/22,2:06:00,29-49.7400N,139-01.4800E,137,27.619,34.5982
179,2002/9/22,2:07:00,29-49.6400N,139-01.6100E,125,27.617,34.6087
180,2002/9/22,2:08:00,29-49.5900N,139-01.7200E,117,27.61,34.6009
181,2002/9/22,2:09:00,29-49.5500N,139-01.8100E,115,27.615,34.5903
182,2002/9/22,2:10:00,29-49.5100N,139-01.8900E,121,27.614,34.5894
183,2002/9/22,2:11:00,29-49.4600N,139-01.9700E,125,27.604,34.6176
184,2002/9/22,2:12:00,29-49.4100N,139-02.0600E,125,27.603,34.6036
185,2002/9/22,2:13:00,29-49.3700N,139-02.1300E,126,27.602,34.5892
186,2002/9/22,2:14:00,29-49.3000N,139-02.2300E,133,27.591,34.5962
187,2002/9/22,2:15:00,29-49.2300N,139-02.3100E,135,27.601,34.5886
188,2002/9/22,2:16:00,29-49.1700N,139-02.3800E,133,27.6,34.6032
189,2002/9/22,2:17:00,29-49.1100N,139-02.4400E,133,27.59,34.6193
190,2002/9/22,2:18:00,29-49.0400N,139-02.5200E,138,27.587,34.6141
191,2002/9/22,2:19:00,29-48.9900N,139-02.5900E,131,27.588,34.6067
192,2002/9/22,2:20:00,29-48.9200N,139-02.6700E,136,27.593,34.6107
193,2002/9/22,2:21:00,29-48.8800N,139-02.7100E,138,27.59,34.6108
194,2002/9/22,2:22:00,29-48.7900N,139-02.8000E,139,27.584,34.6045
195,2002/9/22,2:23:00,29-48.7300N,139-02.8600E,138,27.587,34.6093
196,2002/9/22,2:24:00,29-48.6600N,139-02.9400E,140,27.585,34.6026
197,2002/9/22,2:25:00,29-48.5900N,139-03.0000E,143,27.585,34.5951
198,2002/9/22,2:26:00,29-48.5000N,139-03.0700E,146,27.582,34.604
199,2002/9/22,2:27:00,29-48.4200N,139-03.1300E,148,27.571,34.5844
200,2002/9/22,2:28:00,29-48.3400N,139-03.1800E,152,27.563,34.5946
201,2002/9/22,2:29:00,29-48.2500N,139-03.2400E,146,27.558,34.5917
202,2002/9/22,2:30:00,29-48.1800N,139-03.3000E,143,27.555,34.5698
203,2002/9/22,2:31:00,29-48.1700N,139-03.3100E,141,27.546,34.6031
204,2002/9/22,2:32:00,29-48.0800N,139-03.4000E,138,27.544,34.6076
205,2002/9/22,2:33:00,29-47.9700N,139-03.5200E,140,27.545,34.5752
206,2002/9/22,2:34:00,29-47.9000N,139-03.5800E,145,27.541,34.6057
207,2002/9/22,2:35:00,29-47.8100N,139-03.6600E,142,27.537,34.5695
208,2002/9/22,2:36:00,29-47.7400N,139-03.7100E,145,27.538,34.5446
209,2002/9/22,2:37:00,29-47.6700N,139-03.7700E,147,27.532,34.5803
210,2002/9/22,2:38:00,29-47.5700N,139-03.8400E,144,27.533,34.5632
211,2002/9/22,2:39:00,29-47.4600N,139-03.9300E,144,27.527,34.5848
212,2002/9/22,2:40:00,29-47.3900N,139-03.9900E,140,27.528,34.6094
213,2002/9/22,2:41:00,29-47.3000N,139-04.0700E,146,27.524,34.5988
214,2002/9/22,2:42:00,29-47.2100N,139-04.1400E,145,27.52,34.603
215,2002/9/22,2:43:00,29-47.1200N,139-04.2000E,146,27.524,34.6051
216,2002/9/22,2:44:00,29-47.0300N,139-04.2700E,150,27.518,34.6104
217,2002/9/22,2:45:00,29-46.9300N,139-04.3400E,146,27.517,34.5891
218,2002/9/22,2:46:00,29-46.8200N,139-04.4200E,144,27.513,34.5973
219,2002/9/22,2:47:00,29-46.7500N,139-04.4800E,145,27.512,34.6002
220,2002/9/22,2:48:00,29-46.6700N,139-04.5500E,143,27.515,34.5597
221,2002/9/22,2:49:00,29-46.5800N,139-04.6300E,138,27.514,34.5695
222,2002/9/22,2:50:00,29-46.5200N,139-04.6900E,141,27.506,34.5464
223,2002/9/22,2:51:00,29-46.4200N,139-04.7700E,146,27.504,34.6142
225,2002/9/22,2:53:00,29-46.2700N,139-04.8800E,147,27.503,34.6073
226,2002/9/22,2:54:00,29-46.1500N,139-04.9600E,148,27.5,34.6038
227,2002/9/22,2:55:00,29-46.0600N,139-05.0300E,150,27.502,34.6056
229,2002/9/22,2:57:00,29-45.8500N,139-05.1700E,151,27.49,34.6131
230,2002/9/22,2:58:00,29-45.7300N,139-05.2400E,150,27.485,34.608
231,2002/9/22,2:59:00,29-45.6300N,139-05.3100E,151,27.475,34.5936
233,2002/9/22,3:01:00,29-45.4300N,139-05.4300E,148,27.476,34.5945
234,2002/9/22,3:02:00,29-45.3300N,139-05.5100E,145,27.465,34.6126
235,2002/9/22,3:03:00,29-45.2600N,139-05.5600E,147,27.461,34.6079
237,2002/9/22,3:05:00,29-45.0500N,139-05.7100E,149,27.468,34.6028
238,2002/9/22,3:06:00,29-44.9200N,139-05.7900E,153,27.473,34.6069
239,2002/9/22,3:07:00,29-44.8200N,139-05.8400E,154,27.481,34.5898
240,2002/9/22,3:08:00,29-44.7200N,139-05.8900E,154,27.476,34.5967
241,2002/9/22,3:09:00,29-44.6100N,139-05.9500E,154,27.497,34.6325
242,2002/9/22,3:10:00,29-44.4700N,139-06.0400E,147,27.529,34.6049
243,2002/9/22,3:11:00,29-44.4200N,139-06.0800E,147,27.55,34.5884
244,2002/9/22,3:12:00,29-44.2700N,139-06.1700E,151,27.541,34.5874
245,2002/9/22,3:13:00,29-44.1600N,139-06.2500E,151,27.555,34.6056
246,2002/9/22,3:14:00,29-44.0400N,139-06.3100E,154,27.561,34.614
247,2002/9/22,3:15:00,29-43.9500N,139-06.3600E,153,27.571,34.6168
248,2002/9/22,3:16:00,29-43.8200N,139-06.4300E,155,27.591,34.621
249,2002/9/22,3:17:00,29-43.6900N,139-06.5000E,155,27.585,34.6117
250,2002/9/22,3:18:00,29-43.5900N,139-06.5500E,155,27.595,34.5972
251,2002/9/22,3:19:00,29-43.4700N,139-06.6200E,148,27.615,34.6088
252,2002/9/22,3:20:00,29-43.3900N,139-06.6900E,146,27.647,34.5712
253,2002/9/22,3:21:00,29-43.2900N,139-06.7500E,148,27.666,34.5901
254,2002/9/22,3:22:00,29-43.1800N,139-06.8200E,153,27.671,34.5893
255,2002/9/22,3:23:00,29-43.0900N,139-06.8700E,155,27.682,34.5978
256,2002/9/22,3:24:00,29-43.0000N,139-06.9200E,151,27.691,34.5905
257,2002/9/22,3:25:00,29-42.8500N,139-07.0200E,152,27.689,34.5471
258,2002/9/22,3:26:00,29-42.7900N,139-07.0500E,152,27.688,34.5926
259,2002/9/22,3:27:00,29-42.6400N,139-07.1400E,152,27.687,34.5857
260,2002/9/22,3:28:00,29-42.5400N,139-07.2100E,151,27.695,34.5648
261,2002/9/22,3:29:00,29-42.4000N,139-07.3000E,151,27.696,34.5677
262,2002/9/22,3:30:00,29-42.2900N,139-07.3600E,150,27.707,34.5792
263,2002/9/22,3:31:00,29-42.1700N,139-07.4400E,153,27.718,34.5382
264,2002/9/22,3:32:00,29-42.0800N,139-07.4900E,151,27.722,34.5754
266,2002/9/22,3:34:00,29-41.9100N,139-07.6000E,150,27.734,34.5454
267,2002/9/22,3:35:00,29-41.7500N,139-07.7000E,151,27.741,34.567
268,2002/9/22,3:36:00,29-41.6400N,139-07.7600E,154,27.74,34.5398
269,2002/9/22,3:37:00,29-41.5300N,139-07.8300E,153,27.743,34.5622
270,2002/9/22,3:38:00,29-41.3900N,139-07.9000E,152,27.753,34.5812
271,2002/9/22,3:39:00,29-41.2700N,139-07.9700E,153,27.749,34.572
272,2002/9/22,3:40:00,29-41.1400N,139-08.0500E,152,27.754,34.55
273,2002/9/22,3:41:00,29-41.0200N,139-08.1100E,153,27.755,34.5566
274,2002/9/22,3:42:00,29-40.9100N,139-08.1800E,153,27.756,34.5454
275,2002/9/22,3:43:00,29-40.7500N,139-08.2600E,155,27.753,34.5514
277,2002/9/22,3:45:00,29-40.4700N,139-08.4200E,153,27.75,34.5556
278,2002/9/22,3:46:00,29-40.3500N,139-08.5000E,151,27.757,34.5357
279,2002/9/22,3:47:00,29-40.2100N,139-08.5800E,153,27.757,34.5644
280,2002/9/22,3:48:00,29-40.1100N,139-08.6400E,151,27.752,34.5669
281,2002/9/22,3:49:00,29-39.9700N,139-08.7200E,153,27.753,34.5444
283,2002/9/22,3:51:00,29-39.7000N,139-08.8600E,156,27.757,34.5536
284,2002/9/22,3:52:00,29-39.5600N,139-08.9400E,151,27.748,34.5616
285,2002/9/22,3:53:00,29-39.4500N,139-09.0100E,150,27.755,34.5659
286,2002/9/22,3:54:00,29-39.3300N,139-09.0700E,154,27.753,34.5563
287,2002/9/22,3:55:00,29-39.2300N,139-09.1300E,156,27.753,34.533
288,2002/9/22,3:56:00,29-39.0900N,139-09.1900E,158,27.746,34.5302
289,2002/9/22,3:57:00,29-38.9900N,139-09.2400E,155,27.748,34.5248
291,2002/9/22,3:59:00,29-38.8000N,139-09.3700E,151,27.753,34.5362
292,2002/9/22,4:00:00,29-38.7200N,139-09.4100E,153,27.755,34.5695
293,2002/9/22,4:01:00,29-38.5900N,139-09.4900E,149,27.753,34.5559
294,2002/9/22,4:02:00,29-38.5000N,139-09.5500E,150,27.75,34.5486
295,2002/9/22,4:03:00,29-38.3900N,139-09.6200E,151,27.753,34.5515
296,2002/9/22,4:04:00,29-38.3000N,139-09.6700E,156,27.749,34.5542
297,2002/9/22,4:05:00,29-38.2000N,139-09.7100E,158,27.75,34.5677
298,2002/9/22,4:06:00,29-38.1100N,139-09.7600E,156,27.752,34.5378
299,2002/9/22,4:07:00,29-37.9700N,139-09.8300E,156,27.752,34.538
300,2002/9/22,4:08:00,29-37.8400N,139-09.8900E,157,27.747,34.5195
301,2002/9/22,4:09:00,29-37.7300N,139-09.9400E,159,27.745,34.5413
302,2002/9/22,4:10:00,29-37.6000N,139-09.9900E,158,27.745,34.5508
304,2002/9/22,4:12:00,29-37.4100N,139-10.1100E,146,27.744,34.5448
305,2002/9/22,4:13:00,29-37.3200N,139-10.1700E,150,27.738,34.5677
306,2002/9/22,4:14:00,29-37.2200N,139-10.2300E,150,27.738,34.5577
307,2002/9/22,4:15:00,29-37.1100N,139-10.2900E,154,27.736,34.5685
308,2002/9/22,4:16:00,29-37.0200N,139-10.3300E,157,27.731,34.572
309,2002/9/22,4:17:00,29-36.9000N,139-10.3800E,158,27.727,34.5354
310,2002/9/22,4:18:00,29-36.7700N,139-10.4400E,158,27.717,34.5791
311,2002/9/22,4:19:00,29-36.6400N,139-10.5100E,156,27.714,34.5624
312,2002/9/22,4:20:00,29-36.5300N,139-10.5600E,158,27.709,34.5208
313,2002/9/22,4:21:00,29-36.4700N,139-10.5900E,160,27.71,34.5583
314,2002/9/22,4:22:00,29-36.2600N,139-10.6700E,161,27.706,34.5626
315,2002/9/22,4:23:00,29-36.1200N,139-10.7300E,162,27.695,34.5576
316,2002/9/22,4:24:00,29-36.0000N,139-10.7700E,161,27.688,34.5604
317,2002/9/22,4:25:00,29-35.8300N,139-10.8400E,157,27.68,34.5778
318,2002/9/22,4:26:00,29-35.7200N,139-10.9000E,157,27.67,34.5828
319,2002/9/22,4:27:00,29-35.6000N,139-10.9500E,159,27.665,34.5482
321,2002/9/22,4:29:00,29-35.2600N,139-11.1000E,158,27.656,34.5705
322,2002/9/22,4:30:00,29-35.1500N,139-11.1500E,159,27.652,34.5768
323,2002/9/22,4:31:00,29-34.9900N,139-11.2200E,159,27.647,34.5696
324,2002/9/22,4:32:00,29-34.8000N,139-11.2900E,162,27.639,34.5344
325,2002/9/22,4:33:00,29-34.6500N,139-11.3600E,159,27.633,34.5551
326,2002/9/22,4:34:00,29-34.4800N,139-11.4200E,160,27.633,34.584
327,2002/9/22,4:35:00,29-34.3300N,139-11.4900E,159,27.631,34.5309
329,2002/9/22,4:37:00,29-34.0000N,139-11.6200E,160,27.633,34.5557
330,2002/9/22,4:38:00,29-33.8600N,139-11.6700E,160,27.633,34.557
331,2002/9/22,4:39:00,29-33.6700N,139-11.7500E,158,27.642,34.5728
332,2002/9/22,4:40:00,29-33.5300N,139-11.8200E,157,27.65,34.5653
333,2002/9/22,4:41:00,29-33.3600N,139-11.8900E,162,27.653,34.5561
334,2002/9/22,4:42:00,29-33.2000N,139-11.9400E,163,27.656,34.5389
335,2002/9/22,4:43:00,29-33.0500N,139-11.9900E,165,27.661,34.541
336,2002/9/22,4:44:00,29-32.8700N,139-12.0500E,163,27.664,34.5706
337,2002/9/22,4:45:00,29-32.7100N,139-12.1000E,165,27.671,34.5464
339,2002/9/22,4:47:00,29-32.3900N,139-12.1900E,166,27.675,34.5654
340,2002/9/22,4:48:00,29-32.2700N,139-12.2200E,166,27.686,34.5659
341,2002/9/22,4:49:00,29-32.2000N,139-12.2400E,166,27.689,34.5583
342,2002/9/22,4:50:00,29-31.9400N,139-12.3100E,168,27.69,34.5473
343,2002/9/22,4:51:00,29-31.8300N,139-12.3300E,168,27.692,34.5574
344,2002/9/22,4:52:00,29-31.6800N,139-12.3700E,166,27.694,34.5822
345,2002/9/22,4:53:00,29-31.4400N,139-12.4500E,164,27.688,34.5901
346,2002/9/22,4:54:00,29-31.2800N,139-12.5000E,163,27.69,34.5688
347,2002/9/22,4:55:00,29-31.1600N,139-12.5400E,162,27.692,34.5738
348,2002/9/22,4:56:00,29-31.0900N,139-12.5700E,163,27.689,34.5294
349,2002/9/22,4:57:00,29-30.8600N,139-12.6400E,165,27.69,34.557
350,2002/9/22,4:58:00,29-30.7000N,139-12.6800E,166,27.691,34.554
351,2002/9/22,4:59:00,29-30.5200N,139-12.7300E,167,27.698,34.5587
352,2002/9/22,5:00:00,29-30.3500N,139-12.7800E,166,27.703,34.5683
353,2002/9/22,5:01:00,29-30.2100N,139-12.8200E,166,27.712,34.5658
354,2002/9/22,5:02:00,29-30.0400N,139-12.8800E,162,27.714,34.5436
355,2002/9/22,5:03:00,29-29.8700N,139-12.9400E,164,27.723,34.5763
356,2002/9/22,5:04:00,29-29.7600N,139-12.9700E,165,27.727,34.5746
357,2002/9/22,5:05:00,29-29.5600N,139-13.0200E,167,27.728,34.582
358,2002/9/22,5:06:00,29-29.4000N,139-13.0700E,164,27.724,34.5836
359,2002/9/22,5:07:00,29-29.2800N,139-13.1100E,164,27.721,34.5829
360,2002/9/22,5:08:00,29-29.0800N,139-13.1700E,164,27.725,34.5641
361,2002/9/22,5:09:00,29-28.9100N,139-13.2100E,169,27.721,34.5487
362,2002/9/22,5:10:00,29-28.7500N,139-13.2400E,171,27.724,34.5583
363,2002/9/22,5:11:00,29-28.6000N,139-13.2600E,170,27.723,34.5516
365,2002/9/22,5:13:00,29-28.2800N,139-13.3200E,173,27.716,34.555
366,2002/9/22,5:14:00,29-28.0900N,139-13.3400E,172,27.713,34.5669
367,2002/9/22,5:15:00,29-27.9000N,139-13.3700E,170,27.711,34.5577
368,2002/9/22,5:16:00,29-27.7200N,139-13.4100E,169,27.705,34.5825
369,2002/9/22,5:17:00,29-27.5700N,139-13.4400E,170,27.708,34.576
370,2002/9/22,5:18:00,29-27.4500N,139-13.4600E,170,27.704,34.5876
371,2002/9/22,5:19:00,29-27.2200N,139-13.5000E,171,27.7,34.5689
372,2002/9/22,5:20:00,29-27.0100N,139-13.5300E,172,27.7,34.5657
373,2002/9/22,5:21:00,29-26.8600N,139-13.5600E,172,27.698,34.5865
374,2002/9/22,5:22:00,29-26.6500N,139-13.5900E,171,27.699,34.5686
375,2002/9/22,5:23:00,29-26.4700N,139-13.6200E,172,27.697,34.5824
376,2002/9/22,5:24:00,29-26.2900N,139-13.6500E,172,27.698,34.5765
377,2002/9/22,5:25:00,29-26.1100N,139-13.6700E,174,27.697,34.5764
378,2002/9/22,5:26:00,29-25.9600N,139-13.6900E,173,27.692,34.5798
379,2002/9/22,5:27:00,29-25.7700N,139-13.7200E,173,27.688,34.5582
380,2002/9/22,5:28:00,29-25.6100N,139-13.7400E,172,27.688,34.583
381,2002/9/22,5:29:00,29-25.3800N,139-13.7800E,171,27.688,34.5716
382,2002/9/22,5:30:00,29-25.2000N,139-13.8100E,171,27.688,34.589
383,2002/9/22,5:31:00,29-25.0000N,139-13.8400E,170,27.69,34.5486
384,2002/9/22,5:32:00,29-24.8100N,139-13.8800E,171,27.689,34.5665
385,2002/9/22,5:33:00,29-24.6100N,139-13.9100E,171,27.69,34.5674
386,2002/9/22,5:34:00,29-24.4300N,139-13.9500E,169,27.69,34.5475
387,2002/9/22,5:35:00,29-24.2600N,139-13.9800E,171,27.691,34.5741
388,2002/9/22,5:36:00,29-24.0500N,139-14.0200E,170,27.697,34.5923
389,2002/9/22,5:37:00,29-23.8700N,139-14.0500E,171,27.699,34.5562
390,2002/9/22,5:38:00,29-23.6500N,139-14.0900E,171,27.693,34.5813
391,2002/9/22,5:39:00,29-23.5200N,139-14.1100E,172,27.691,34.5902
392,2002/9/22,5:40:00,29-23.3100N,139-14.1500E,171,27.687,34.5788
393,2002/9/22,5:41:00,29-23.1200N,139-14.1900E,169,27.686,34.5504
394,2002/9/22,5:42:00,29-22.8700N,139-14.2400E,169,27.686,34.5857
395,2002/9/22,5:43:00,29-22.8200N,139-14.2500E,169,27.685,34.5921
396,2002/9/22,5:44:00,29-22.4900N,139-14.3300E,167,27.684,34.5871
397,2002/9/22,5:45:00,29-22.3100N,139-14.3800E,164,27.676,34.5915
398,2002/9/22,5:46:00,29-22.1500N,139-14.4300E,164,27.672,34.5934
399,2002/9/22,5:47:00,29-21.9300N,139-14.4900E,169,27.667,34.5992
400,2002/9/22,5:48:00,29-21.7800N,139-14.5200E,168,27.665,34.595